Location: Coupvray
(48.8929°N, 2.7967°E)
Time: 21:02:06
(UTC+00:00)

Cosmos 1954 Rocket - Pass Details

Date: 14 July 2020
Orbit: 751 x 782 km, 74.0° (Epoch: 14 August)

Event Time Altitude Azimuth Distance (km) Brightness Sun altitude
Exits shadow 02:08:17 18° 193° (SSW) 1,823 5.4 -13.5°
Maximum altitude 02:12:14 75° 110° (ESE) 806 4.1 -13.1°
Drops below altitude 10° 02:17:33 10° 26° (NNE) 2,342 8.0 -12.6°
Sets 02:19:57 0° 25° (NNE) 3,277 9.2 -12.4°
